Weather History for Chippewa, MI

Change the Weather History Date:

Thursday, September 8, 2011

  Actual Average Record
Temperature  
Mean Temperature 63 °F -  
Max Temperature 75 °F 68 °F 84 °F (2002)
Min Temperature 51 °F 45 °F 39 °F (1982)
Degree Days  
Heating Degree Days 2    
Growing Degree Days 13 (Base 50)    
Moisture  
Dew Point 53 °F    
Average Humidity 73    
Maximum Humidity 88    
Minimum Humidity 50    
Precipitation  
Precipitation 0.00 in - - ()
Sea Level Pressure  
Sea Level Pressure 30.19 in    
Wind  
Wind Speed 6 mph (North)    
Max Wind Speed 13 mph    
Max Gust Speed -    
Visibility 9 miles    
Events      
Averages and records for this station are not official NWS values.
T = Trace of Precipitation, MM = Missing Value Source: NWS Daily Summary

Daily Weather History Graph

Daily Weather History Graph

Search for Another Location

Airport:

Trip Planner

Search our weather history database for the weather conditions in past years. The results will help you decide how hot, cold, wet, or windy it might be!

Date:

Astronomy

Sep. 08, 2011 Rise Set
Actual Time 7:06 AM EDT 8:03 PM EDT
Civil Twilight 6:36 AM EDT 8:34 PM EDT
Nautical Twilight 5:59 AM EDT 9:10 PM EDT
Astronomical Twilight 5:21 AM EDT 9:48 PM EDT
Moon 6:05 PM EDT (9/8) 3:13 AM EDT (9/8)
Length of Visible Light 13h 57m
Length of Day
12h 56m
Waxing Gibbous, 87% of the Moon is Illuminated
Sep 8
Waxing Gibbous
Sep 12
Full
Sep 20
Last Quarter
Sep 27
New
Oct 3
First Quarter

Hourly Weather History & Observations

Time (EDT) Temp. Dew Point Humidity Pressure Visibility Wind Dir Wind Speed Gust Speed Precip Events Conditions
12:15 AM 55.4 °F 48.2 °F 77% 30.19 in 10.0 mi NNW 6.9 mph - N/A   Clear
12:35 AM 55.4 °F 50.0 °F 82% 30.19 in 10.0 mi NNW 5.8 mph - N/A   Clear
12:55 AM 55.4 °F 51.8 °F 88% 30.19 in 10.0 mi NNW 5.8 mph - N/A   Clear
1:15 AM 55.4 °F 51.8 °F 88% 30.19 in 10.0 mi NNW 5.8 mph - N/A   Clear
1:35 AM 55.4 °F 51.8 °F 88% 30.18 in 10.0 mi NNW 8.1 mph - N/A   Clear
1:55 AM 57.2 °F 51.8 °F 82% 30.18 in 10.0 mi NNW 9.2 mph - N/A   Clear
2:15 AM 57.2 °F 53.6 °F 88% 30.18 in 10.0 mi NNW 8.1 mph - N/A   Clear
2:35 AM 57.2 °F 51.8 °F 82% 30.18 in 10.0 mi North 5.8 mph - N/A   Clear
2:55 AM 55.4 °F 51.8 °F 88% 30.18 in 10.0 mi NNW 5.8 mph - N/A   Clear
3:15 AM 55.4 °F 51.8 °F 88% 30.18 in 10.0 mi North 5.8 mph - N/A   Clear
3:35 AM 55.4 °F 51.8 °F 88% 30.18 in 10.0 mi NNW 5.8 mph - N/A   Clear
3:55 AM 55.4 °F 51.8 °F 88% 30.18 in 7.0 mi NNW 6.9 mph - N/A   Clear
4:15 AM 55.4 °F 51.8 °F 88% 30.18 in 5.0 mi North 5.8 mph - N/A   Clear
4:35 AM 55.4 °F 51.8 °F 88% 30.18 in 1.0 mi North 5.8 mph - N/A   Overcast
4:55 AM 55.4 °F 51.8 °F 88% 30.18 in 2.0 mi North 8.1 mph - N/A   Overcast
5:15 AM 55.4 °F 51.8 °F 88% 30.18 in 2.0 mi North 6.9 mph - N/A   Mostly Cloudy
5:35 AM 55.4 °F 51.8 °F 88% 30.18 in 9.0 mi North 5.8 mph - N/A   Partly Cloudy
5:55 AM 55.4 °F 51.8 °F 88% 30.19 in 10.0 mi North 3.5 mph - N/A   Clear
6:15 AM 55.4 °F 51.8 °F 88% 30.19 in 10.0 mi North - - N/A   Clear
6:35 AM 55.4 °F 51.8 °F 88% 30.19 in 10.0 mi North - - N/A   Clear
6:55 AM 53.6 °F 48.2 °F 82% 30.20 in 2.5 mi NW 3.5 mph - N/A   Clear
7:15 AM 51.8 °F 46.4 °F 82% 30.20 in 0.5 mi Calm Calm - N/A   Unknown
7:35 AM 51.8 °F 48.2 °F 88% 30.21 in 0.2 mi Calm Calm - N/A   Unknown
7:55 AM 51.8 °F 48.2 °F 88% 30.21 in 1.5 mi Calm Calm - N/A   Clear
8:15 AM 53.6 °F 50.0 °F 88% 30.21 in 10.0 mi Calm Calm - N/A   Clear
8:35 AM 57.2 °F 51.8 °F 82% 30.21 in 10.0 mi Calm Calm - N/A   Clear
8:55 AM 59.0 °F 53.6 °F 82% 30.21 in 10.0 mi Calm Calm - N/A   Clear
9:15 AM 60.8 °F 53.6 °F 77% 30.21 in 10.0 mi NE 5.8 mph - N/A   Clear
9:35 AM 62.6 °F 53.6 °F 72% 30.22 in 10.0 mi ENE 6.9 mph - N/A   Clear
9:55 AM 62.6 °F 53.6 °F 72% 30.23 in 10.0 mi NNE 8.1 mph - N/A   Clear
10:15 AM 62.6 °F 53.6 °F 72% 30.23 in 10.0 mi NNE 6.9 mph - N/A   Clear
10:35 AM 64.4 °F 53.6 °F 68% 30.23 in 10.0 mi North 8.1 mph - N/A   Clear
10:55 AM 66.2 °F 55.4 °F 68% 30.22 in 10.0 mi North 8.1 mph - N/A   Clear
11:15 AM 66.2 °F 55.4 °F 68% 30.22 in 10.0 mi NE 5.8 mph - N/A   Clear
11:35 AM 68.0 °F 55.4 °F 64% 30.22 in 10.0 mi Calm Calm - N/A   Clear
11:55 AM 69.8 °F 55.4 °F 60% 30.21 in 10.0 mi ENE 3.5 mph - N/A   Clear
12:15 PM 69.8 °F 55.4 °F 60% 30.21 in 10.0 mi Calm Calm - N/A   Clear
12:35 PM 71.6 °F 55.4 °F 57% 30.21 in 10.0 mi ENE 4.6 mph - N/A   Clear
12:55 PM 71.6 °F 55.4 °F 57% 30.20 in 10.0 mi ENE 4.6 mph - N/A   Clear
1:15 PM 73.4 °F 55.4 °F 53% 30.19 in 10.0 mi Calm Calm - N/A   Clear
1:35 PM 73.4 °F 55.4 °F 53% 30.18 in 10.0 mi Calm Calm - N/A   Clear
1:55 PM 73.4 °F 55.4 °F 53% 30.18 in 10.0 mi East 4.6 mph - N/A   Clear
2:15 PM 75.2 °F 55.4 °F 50% 30.18 in 10.0 mi Calm Calm - N/A   Scattered Clouds
2:35 PM 73.4 °F 55.4 °F 53% 30.17 in 10.0 mi Calm Calm - N/A   Mostly Cloudy
2:55 PM 75.2 °F 55.4 °F 50% 30.16 in 10.0 mi NE 5.8 mph - N/A   Scattered Clouds
3:15 PM 75.2 °F 55.4 °F 50% 30.15 in 10.0 mi NNW 9.2 mph - N/A   Scattered Clouds
3:35 PM 75.2 °F 57.2 °F 53% 30.14 in 10.0 mi NW 8.1 mph - N/A   Partly Cloudy
3:55 PM 75.2 °F 55.4 °F 50% 30.14 in 10.0 mi NNW 12.7 mph - N/A   Clear
4:15 PM 75.2 °F 55.4 °F 50% 30.12 in 10.0 mi NNW 11.5 mph - N/A   Clear
4:35 PM 73.4 °F 55.4 °F 53% 30.12 in 10.0 mi NNW 10.4 mph - N/A   Clear
4:55 PM 73.4 °F 53.6 °F 50% 30.11 in 10.0 mi NNW 10.4 mph - N/A   Clear
5:15 PM 73.4 °F 53.6 °F 50% 30.11 in 10.0 mi North 11.5 mph - N/A   Clear
5:35 PM 73.4 °F 53.6 °F 50% 30.11 in 10.0 mi NNW 11.5 mph - N/A   Clear
5:55 PM 71.6 °F 55.4 °F 57% 30.11 in 10.0 mi North 10.4 mph - N/A   Clear
6:15 PM 71.6 °F 53.6 °F 53% 30.11 in 10.0 mi NNW 15.0 mph - N/A   Clear
6:35 PM 69.8 °F 53.6 °F 56% 30.10 in 10.0 mi NNW 13.8 mph - N/A   Clear
6:55 PM 69.8 °F 51.8 °F 53% 30.10 in 10.0 mi NW 12.7 mph - N/A   Clear
7:15 PM 68.0 °F 53.6 °F 60% 30.10 in 10.0 mi NNW 9.2 mph - N/A   Clear
7:35 PM 66.2 °F 50.0 °F 56% 30.09 in 10.0 mi NNW 12.7 mph - N/A   Clear
7:55 PM 64.4 °F 50.0 °F 59% 30.09 in 10.0 mi NNW 10.4 mph - N/A   Clear
8:15 PM 64.4 °F 50.0 °F 59% 30.08 in 10.0 mi NNW 9.2 mph - N/A   Clear
8:35 PM 62.6 °F 50.0 °F 63% 30.08 in 10.0 mi NW 6.9 mph - N/A   Clear
8:55 PM 62.6 °F 50.0 °F 63% 30.08 in 10.0 mi NW 6.9 mph - N/A   Clear
9:15 PM 60.8 °F 50.0 °F 68% 30.08 in 10.0 mi NW 6.9 mph - N/A   Clear
9:35 PM 60.8 °F 50.0 °F 68% 30.08 in 10.0 mi NNW 6.9 mph - N/A   Clear
9:55 PM 59.0 °F 50.0 °F 72% 30.08 in 10.0 mi NW 5.8 mph - N/A   Clear
10:15 PM 59.0 °F 50.0 °F 72% 30.08 in 10.0 mi WNW 5.8 mph - N/A   Clear
10:35 PM 59.0 °F 50.0 °F 72% 30.08 in 10.0 mi NNW 9.2 mph - N/A   Clear
10:55 PM 59.0 °F 51.8 °F 77% 30.08 in 10.0 mi NW 5.8 mph - N/A   Clear
11:15 PM 59.0 °F 51.8 °F 77% 30.07 in 10.0 mi NNW 6.9 mph - N/A   Clear
11:35 PM 59.0 °F 51.8 °F 77% 30.07 in 10.0 mi NNW 5.8 mph - N/A   Clear
11:55 PM 59.0 °F 51.8 °F 77% 30.07 in 10.0 mi NW 5.8 mph - N/A   Clear